DW6455 Weather Reports


time (UTC)temp
C
wind
direction
speed
KPH
gust
KPH
rain 1hr
cm
rain 24hr
cm
rain mn
cm
humidity
%
barometer
mb
20260507074531 9 225 6.4 9.7 0.00 0.00 0.00 42 1016.0
20260507073533 9 248 3.2 8.0 0.00 0.00 0.00 45 1016.0
20260507072531 8 248 1.6 8.0 0.00 0.00 0.00 48 1016.0
20260507071531 8 248 1.6 8.0 0.00 0.00 0.00 52 1016.0
20260507070531 8 248 3.2 6.4 0.00 0.00 0.00 55 1016.0
20260507065532 8 248 3.2 6.4 0.00 0.00 0.00 55 1016.0
20260507064530 8 248 3.2 6.4 0.00 0.00 0.00 56 1016.0
20260507063550 7 248 1.6 6.4 0.00 0.00 0.00 58 1016.0
20260507062531 7 248 3.2 6.4 0.00 0.00 0.00 60 1016.0
20260507061532 6 270 1.6 6.4 0.00 0.00 0.00 62 1016.0
20260507060531 6 0.0 3.2 0.00 0.00 0.00 59 1016.0
20260507055531 6 0.0 0.0 0.00 0.00 0.00 60 1015.9
20260507054530 6 0.0 0.0 0.00 0.00 0.00 57 1016.0
20260507053551 7 0.0 4.8 0.00 0.00 0.00 54 1016.0
20260507052610 6 270 1.6 6.4 0.00 0.00 0.00 58 1016.0
20260507051532 5 270 1.6 6.4 0.00 0.00 0.00 62 1016.0
20260507050530 4 270 1.6 9.7 0.00 0.00 0.00 67 1016.0
20260507045530 2 270 1.6 6.4 0.00 0.00 0.00 76 1016.0
20260507044610 1 0.0 0.0 0.00 0.00 0.00 77 1016.0
20260507043530 0 0.0 0.0 0.00 0.00 0.00 78 1016.0
20260507042551 0 0.0 0.0 0.00 0.00 0.00 79 1016.0
20260507041532 0 0.0 0.0 0.00 0.00 0.00 78 1016.0
20260507040551 0 0.0 0.0 0.00 0.00 0.00 76 1016.0
20260507035531 -1 0.0 0.0 0.00 0.00 0.00 70 1016.0
20260507034531 -1 0.0 0.0 0.00 0.00 0.00 68 1015.9
20260507033550 -2 0.0 0.0 0.00 0.00 0.00 66 1015.9
20260507032531 -2 0.0 0.0 0.00 0.00 0.00 67 1015.9
20260507031531 -3 0.0 0.0 0.00 0.00 0.00 68 1015.9
20260507030530 -3 0.0 0.0 0.00 0.00 0.00 70 1015.9
20260507025531 -3 270 3.2 4.8 0.00 0.00 0.00 72 1015.9
20260507024531 -4 270 3.2 4.8 0.00 0.00 0.00 73 1015.9
20260507023531 -4 270 3.2 3.2 0.00 0.00 0.00 74 1015.9
20260507022531 -4 270 3.2 3.2 0.00 0.00 0.00 74 1015.8
20260507021531 -4 270 3.2 4.8 0.00 0.00 0.00 75 1015.8
20260507020531 -4 270 3.2 3.2 0.00 0.00 0.00 75 1015.8
20260507015611 -4 270 3.2 4.8 0.00 0.00 0.00 76 1015.6
20260507014531 -4 270 3.2 4.8 0.00 0.00 0.00 76 1015.6
20260507013531 -4 270 1.6 3.2 0.00 0.00 0.00 76 1015.6
20260507012531 -3 270 1.6 3.2 0.00 0.00 0.00 77 1015.5
20260507011531 -3 270 1.6 3.2 0.00 0.00 0.00 77 1015.4
20260507010531 -3 0.0 1.6 0.00 0.00 0.00 78 1015.5
20260507005611 -3 270 1.6 3.2 0.00 0.00 0.00 78 1015.3
20260507004551 -3 0.0 3.2 0.00 0.00 0.00 78 1015.3
20260507003531 -3 0.0 3.2 0.00 0.00 0.00 79 1015.2
20260507002531 -3 270 3.2 3.2 0.00 0.00 0.00 79 1015.2
20260507001531 -3 270 3.2 4.8 0.00 0.00 0.00 80 1015.0
20260507000533 -3 270 3.2 4.8 0.00 0.00 0.00 80 1015.0
20260506235531 -3 270 3.2 4.8 0.00 0.00 0.00 80 1014.9
20260506234531 -3 270 1.6 3.2 0.00 0.00 0.00 80 1014.9
20260506233532 -3 270 3.2 3.2 0.00 0.00 0.00 80 1014.8
20260506232536 -2 270 3.2 4.8 0.00 0.00 0.00 80 1014.8
20260506231530 -2 270 3.2 3.2 0.00 0.00 0.00 80 1014.8
20260506230531 -2 270 1.6 3.2 0.00 0.00 0.00 80 1014.7
20260506225531 -2 270 3.2 3.2 0.00 0.00 0.00 80 1014.7
20260506224531 -2 270 3.2 3.2 0.00 0.00 0.00 79 1014.7
20260506223531 -2 270 3.2 4.8 0.00 0.00 0.00 79 1014.7
20260506222531 -1 0.0 0.0 0.00 0.00 0.00 78 1014.6
20260506221531 -1 0.0 0.0 0.00 0.00 0.00 78 1014.5
20260506220531 -1 0.0 3.2 0.00 0.00 0.00 78 1014.4
20260506215531 -1 0.0 0.0 0.00 0.00 0.00 77 1014.4
20260506214531 -1 0.0 0.0 0.00 0.00 0.00 77 1014.3
20260506213531 -1 0.0 0.0 0.00 0.00 0.00 78 1014.2
20260506212611 -1 0.0 0.0 0.00 0.00 0.00 77 1014.2
20260506211531 -1 0.0 0.0 0.00 0.00 0.00 76 1014.2
20260506210531 -1 0.0 0.0 0.00 0.00 0.00 76 1014.2
20260506205531 -1 0.0 0.0 0.00 0.00 0.00 75 1014.0
20260506204531 0 0.0 0.0 0.00 0.00 0.00 75 1014.0
20260506203531 0 270 3.2 4.8 0.00 0.00 0.00 71 1014.0
20260506202531 0 0.0 4.8 0.00 0.00 0.00 68 1014.0
20260506201531 1 270 1.6 6.4 0.00 0.00 0.00 65 1013.9
20260506200531 1 270 3.2 6.4 0.00 0.00 0.00 65 1013.9
20260506195530 1 270 3.2 4.8 0.00 0.00 0.00 65 1013.9
20260506194531 2 270 4.8 6.4 0.00 0.00 0.00 61 1013.8
20260506193531 2 270 4.8 6.4 0.00 0.00 0.00 63 1013.7
20260506192531 2 270 3.2 4.8 0.00 0.00 0.00 59 1013.7
20260506191534 3 270 4.8 9.7 0.00 0.00 0.00 58 1013.6
20260506190534 3 270 3.2 6.4 0.00 0.00 0.00 56 1013.6
20260506185532 4 270 3.2 4.8 0.00 0.00 0.00 55 1013.6
20260506184531 5 270 3.2 6.4 0.00 0.00 0.00 55 1013.6
20260506183531 5 270 1.6 4.8 0.00 0.00 0.00 50 1013.6
20260506182531 6 270 1.6 4.8 0.00 0.00 0.00 46 1013.5
20260506181531 6 270 1.6 6.4 0.00 0.00 0.00 45 1013.3
20260506180531 7 270 1.6 6.4 0.00 0.00 0.00 44 1013.3
20260506175551 7 270 3.2 9.7 0.00 0.00 0.00 43 1013.1
20260506174531 7 270 3.2 11.3 0.00 0.00 0.00 42 1013.1
20260506173531 7 270 3.2 11.3 0.00 0.00 0.00 41 1013.0
20260506172531 8 270 3.2 12.9 0.00 0.00 0.00 40 1012.8
20260506171530 8 270 3.2 12.9 0.00 0.00 0.00 39 1012.8
20260506170550 8 270 1.6 11.3 0.00 0.00 0.00 39 1012.7
20260506165551 8 270 4.8 11.3 0.00 0.00 0.00 37 1012.7
20260506164531 9 293 6.4 16.1 0.00 0.00 0.00 36 1012.6
20260506163551 9 293 3.2 17.7 0.00 0.00 0.00 35 1012.5
20260506162531 10 315 4.8 14.5 0.00 0.00 0.00 34 1012.5
20260506161531 9 293 6.4 19.3 0.00 0.00 0.00 34 1012.4
20260506160532 9 293 8.0 17.7 0.00 0.00 0.00 33 1012.4
20260506155532 9 293 9.7 24.1 0.00 0.00 0.00 32 1012.4
20260506154531 9 270 4.8 17.7 0.00 0.00 0.00 32 1012.4
20260506153530 10 270 8.0 20.9 0.00 0.00 0.00 33 1012.4
20260506152552 10 315 6.4 14.5 0.00 0.00 0.00 36 1012.3
20260506151531 10 270 11.3 20.9 0.00 0.00 0.00 32 1012.3
20260506150530 10 315 9.7 20.9 0.00 0.00 0.00 33 1012.2
20260506145532 10 293 11.3 20.9 0.00 0.00 0.00 32 1012.3
20260506144532 10 315 11.3 24.1 0.00 0.00 0.00 33 1012.2
20260506143530 10 270 6.4 16.1 0.00 0.00 0.00 33 1012.2
20260506142552 10 293 12.9 25.7 0.00 0.00 0.00 33 1012.2
20260506141551 10 293 6.4 20.9 0.00 0.00 0.00 34 1012.1
20260506140531 10 293 9.7 17.7 0.00 0.00 0.00 33 1012.1
20260506135531 10 293 6.4 17.7 0.00 0.00 0.00 35 1012.0
20260506134531 10 293 9.7 19.3 0.00 0.03 0.00 34 1011.9
20260506133531 11 270 6.4 16.1 0.00 0.03 0.00 33 1012.0
20260506132532 10 293 8.0 20.9 0.00 0.03 0.00 33 1012.0
20260506131531 10 270 8.0 24.1 0.00 0.03 0.00 35 1011.7
20260506130531 11 270 9.7 22.5 0.00 0.03 0.00 34 1011.8
20260506125531 11 315 9.7 24.1 0.00 0.03 0.00 32 1011.7
20260506124552 11 270 4.8 16.1 0.00 0.03 0.00 36 1011.6
20260506123532 11 293 9.7 32.2 0.00 0.03 0.00 31 1011.5
20260506122531 11 270 4.8 17.7 0.00 0.03 0.00 34 1011.6
20260506121531 11 270 11.3 20.9 0.00 0.03 0.00 33 1011.7
20260506120531 11 293 6.4 17.7 0.00 0.03 0.00 34 1011.6
20260506115551 11 270 6.4 24.1 0.00 0.03 0.00 36 1011.7
20260506114531 10 270 6.4 17.7 0.00 0.03 0.00 34 1011.5
20260506113531 10 248 4.8 16.1 0.00 0.03 0.00 36 1011.5
20260506112551 10 270 6.4 24.1 0.00 0.03 0.00 36 1011.4
20260506111551 10 293 16.1 35.4 0.00 0.03 0.00 33 1011.4
20260506110531 10 270 9.7 22.5 0.00 0.03 0.00 36 1011.3
20260506105531 10 315 12.9 25.7 0.00 0.03 0.00 36 1011.4
20260506104551 10 293 9.7 17.7 0.00 0.03 0.00 37 1011.3
20260506103531 10 293 8.0 30.6 0.00 0.03 0.00 38 1011.4
20260506102531 10 270 12.9 27.4 0.00 0.03 0.00 36 1011.3
20260506101531 10 270 8.0 24.1 0.00 0.03 0.00 37 1011.2
20260506100531 10 270 11.3 19.3 0.00 0.03 0.00 38 1011.1
20260506095530 10 248 8.0 19.3 0.00 0.03 0.00 37 1011.0
20260506094531 10 293 8.0 29.0 0.00 0.03 0.00 41 1011.0
20260506093532 9 293 4.8 17.7 0.00 0.03 0.00 44 1010.9
20260506092531 9 315 6.4 20.9 0.00 0.03 0.00 42 1011.0
20260506091551 8 293 12.9 24.1 0.00 0.03 0.00 43 1010.9
20260506090530 8 293 8.0 20.9 0.00 0.03 0.00 41 1010.9
20260506085531 8 293 8.0 24.1 0.00 0.03 0.00 44 1010.9
20260506084530 8 270 12.9 25.7 0.00 0.03 0.00 43 1010.9
20260506083530 8 270 9.7 17.7 0.00 0.03 0.00 45 1011.0
20260506082531 8 270 8.0 20.9 0.00 0.03 0.00 46 1010.8
20260506081531 8 270 4.8 17.7 0.00 0.03 0.00 49 1010.6
20260506080529 7 293 8.0 25.7 0.00 0.03 0.00 48 1010.6